SHIYAN-1 (SY-1)
Last updated on Sun Jun 21 2026 00:02:51 GMT+0000 (Coordinated Universal Time)
1 28220U 04012A 26171.18463165 .00011063 00000+0 34057-3 0 9994
2 28220 97.8685 249.4480 0005306 22.5113 337.6360 15.33824479211556
Next 0 passes for location: London (51.5072 / 0.1276)
No passes found over London.